STARLINK-30172 (57410 NORAD) Tracking and Keplerian Element Data

This shows tracking and keplerian element data for the satellite.

Feedback or suggestion? Click here.




ElementValue
Catalog57410
NameSTARLINK-30172
Epoch Orbit2787
Epoch Day12.8386013
Epoch Year2024
RAAN204.3764
Inclination43.0011
Eccentricity0.0001205
Argument of Perigee271.8487
Mean Anonmoly88.2217
Mean Motion15.02544111
Decay Rate2.444E-05
L11 57410U 23102G 24012.83860130 .00002444 00000+0 19587-3 0 9999
L22 57410 43.0011 204.3764 0001205 271.8487 88.2217 15.02544111 27875



Live tracking and technical data element details for STARLINK-30172 (NORAD 57410). STARLINK-30172 can be tracked NOW for your location showing map with azimuth and elevation plus other details from your city location.







IsCatalogInMostPopularTable: catalog: 57410, numindb: 5
Update: records affected: 1



GetName: 57410 STARLINK-30172

Hit Count: updated at: Thu, 22 Feb 2024 01:04:30 GMT